Meteo pe oră la Bolshoe Gatische

Astăzi, 6 Mai, Joi

Timp Temperatura Precipitaţii Vânt Presiune Umiditate
00:00 +8°C° 1.5 mm 2 m/s 732 mmHg 95%
01:00 +7°C° 1.5 mm 3 m/s 732 mmHg 96%
02:00 +7°C° 0 mm 3 m/s 732 mmHg 96%
03:00 +6°C° 0.7 mm 4 m/s 732 mmHg 93%
04:00 +5°C° 0.7 mm 5 m/s 732 mmHg 90%
05:00 +4°C° 0.7 mm 6 m/s 733 mmHg 86%
06:00 +4°C° 0.2 mm 7 m/s 733 mmHg 86%
07:00 +5°C° 0.2 mm 7 m/s 734 mmHg 86%
08:00 +5°C° 0.2 mm 7 m/s 734 mmHg 86%
09:00 +5°C° 0.1 mm 7 m/s 735 mmHg 81%
10:00 +6°C° 0.1 mm 8 m/s 735 mmHg 76%
11:00 +6°C° 0.1 mm 8 m/s 735 mmHg 71%
12:00 +7°C° 0.1 mm 8 m/s 736 mmHg 62%
13:00 +8°C° 0.1 mm 9 m/s 736 mmHg 54%
14:00 +10°C° 0.1 mm 9 m/s 737 mmHg 46%
15:00 +9°C° 0.2 mm 8 m/s 737 mmHg 50%
16:00 +9°C° 0.2 mm 8 m/s 737 mmHg 54%
17:00 +8°C° 0.2 mm 7 m/s 737 mmHg 58%
18:00 +7°C° 0 mm 6 m/s 737 mmHg 62%
19:00 +6°C° 0 mm 4 m/s 737 mmHg 67%
20:00 +5°C° 0 mm 3 m/s 738 mmHg 71%
21:00 +4°C° 0 mm 3 m/s 738 mmHg 73%
22:00 +4°C° 0 mm 3 m/s 738 mmHg 74%
23:00 +4°C° 0 mm 4 m/s 738 mmHg 75%

Mâine, 7 Mai, Vineri

Timp Temperatura Precipitaţii Vânt Presiune Umiditate
00:00 +4°C° 0 mm 4 m/s 738 mmHg 77%
01:00 +4°C° 0 mm 4 m/s 738 mmHg 79%
02:00 +4°C° 0 mm 4 m/s 738 mmHg 80%
03:00 +4°C° 0 mm 4 m/s 738 mmHg 85%
04:00 +3°C° 0 mm 3 m/s 737 mmHg 90%
05:00 +2°C° 0 mm 3 m/s 737 mmHg 95%
06:00 +4°C° 0 mm 3 m/s 738 mmHg 90%
07:00 +5°C° 0 mm 3 m/s 738 mmHg 84%
08:00 +8°C° 0 mm 3 m/s 738 mmHg 79%
09:00 +8°C° 0.2 mm 3 m/s 737 mmHg 79%
10:00 +8°C° 0.2 mm 3 m/s 737 mmHg 78%
11:00 +9°C° 0.2 mm 3 m/s 737 mmHg 78%
12:00 +9°C° 0.4 mm 3 m/s 736 mmHg 81%
13:00 +7°C° 0.4 mm 4 m/s 736 mmHg 84%
14:00 +7°C° 0.4 mm 4 m/s 735 mmHg 88%
15:00 +7°C° 0.5 mm 4 m/s 735 mmHg 90%
16:00 +7°C° 0.5 mm 4 m/s 735 mmHg 93%
17:00 +8°C° 0.5 mm 3 m/s 734 mmHg 96%
18:00 +8°C° 0.2 mm 3 m/s 734 mmHg 95%
19:00 +8°C° 0.2 mm 3 m/s 734 mmHg 95%
20:00 +8°C° 0.2 mm 3 m/s 734 mmHg 95%
21:00 +6°C° 0.1 mm 4 m/s 734 mmHg 95%
22:00 +6°C° 0.1 mm 4 m/s 734 mmHg 95%
23:00 +5°C° 0.1 mm 5 m/s 734 mmHg 95%

Poimâine, 8 Mai, Sâmbătă

Timp Temperatura Precipitaţii Vânt Presiune Umiditate
00:00 +5°C° 0.1 mm 5 m/s 734 mmHg 94%
01:00 +3°C° 0.1 mm 6 m/s 734 mmHg 94%
02:00 +3°C° 0.1 mm 6 m/s 734 mmHg 93%
03:00 +2°C° 1.1 mm 7 m/s 734 mmHg 94%
04:00 0°C° 1.1 mm 8 m/s 735 mmHg 95%
05:00 -1°C° 1.1 mm 9 m/s 736 mmHg 97%
06:00 -1°C° 0.7 mm 9 m/s 736 mmHg 96%
07:00 0°C° 0.7 mm 9 m/s 737 mmHg 95%
08:00 0°C° 0.7 mm 8 m/s 738 mmHg 94%
09:00 +1°C° 0.1 mm 8 m/s 739 mmHg 87%
10:00 +2°C° 0.1 mm 8 m/s 740 mmHg 80%
11:00 +4°C° 0.1 mm 8 m/s 740 mmHg 74%
12:00 +4°C° 0.1 mm 8 m/s 741 mmHg 70%
13:00 +5°C° 0.1 mm 8 m/s 741 mmHg 67%
14:00 +6°C° 0.1 mm 8 m/s 742 mmHg 63%
15:00 +6°C° 0.2 mm 7 m/s 742 mmHg 66%
16:00 +6°C° 0.2 mm 7 m/s 742 mmHg 70%
17:00 +7°C° 0.2 mm 6 m/s 742 mmHg 73%
18:00 +5°C° 0.2 mm 6 m/s 743 mmHg 78%
19:00 +5°C° 0.2 mm 5 m/s 743 mmHg 82%
20:00 +4°C° 0.2 mm 4 m/s 743 mmHg 87%
21:00 +3°C° 0.1 mm 4 m/s 744 mmHg 90%
22:00 +3°C° 0.1 mm 3 m/s 744 mmHg 92%
23:00 +2°C° 0.1 mm 3 m/s 745 mmHg 95%

9 Mai, Duminică

Timp Temperatura Precipitaţii Vânt Presiune Umiditate
00:00 +1°C° 0 mm 3 m/s 745 mmHg 95%
01:00 +1°C° 0 mm 3 m/s 746 mmHg 95%
02:00 +1°C° 0 mm 3 m/s 746 mmHg 96%
03:00 +1°C° 0 mm 2 m/s 746 mmHg 96%
04:00 +1°C° 0 mm 2 m/s 747 mmHg 96%
05:00 +1°C° 0 mm 2 m/s 747 mmHg 96%
06:00 +3°C° 0 mm 2 m/s 748 mmHg 90%
07:00 +4°C° 0 mm 2 m/s 748 mmHg 85%
08:00 +6°C° 0 mm 2 m/s 748 mmHg 79%
09:00 +8°C° 0 mm 3 m/s 749 mmHg 70%
10:00 +9°C° 0 mm 3 m/s 749 mmHg 62%
11:00 +10°C° 0 mm 3 m/s 749 mmHg 53%
12:00 +11°C° 0 mm 3 m/s 749 mmHg 50%
13:00 +12°C° 0 mm 3 m/s 749 mmHg 47%
14:00 +13°C° 0 mm 3 m/s 749 mmHg 44%
15:00 +13°C° 0 mm 3 m/s 749 mmHg 47%
16:00 +13°C° 0 mm 3 m/s 748 mmHg 49%
17:00 +13°C° 0 mm 3 m/s 748 mmHg 52%
18:00 +11°C° 0 mm 3 m/s 748 mmHg 58%
19:00 +10°C° 0 mm 3 m/s 749 mmHg 64%
20:00 +8°C° 0 mm 3 m/s 749 mmHg 70%
21:00 +7°C° 0 mm 3 m/s 749 mmHg 71%
22:00 +7°C° 0 mm 3 m/s 749 mmHg 72%
23:00 +5°C° 0 mm 4 m/s 749 mmHg 72%

10 Mai, Luni

Timp Temperatura Precipitaţii Vânt Presiune Umiditate
00:00 +5°C° 0 mm 4 m/s 749 mmHg 74%
01:00 +5°C° 0 mm 4 m/s 749 mmHg 76%
02:00 +4°C° 0 mm 4 m/s 749 mmHg 78%
03:00 +4°C° 0 mm 4 m/s 749 mmHg 78%
04:00 +4°C° 0 mm 4 m/s 749 mmHg 78%
05:00 +4°C° 0 mm 4 m/s 750 mmHg 78%
06:00 +6°C° 0 mm 4 m/s 750 mmHg 74%
07:00 +8°C° 0 mm 5 m/s 750 mmHg 70%
08:00 +10°C° 0 mm 5 m/s 750 mmHg 66%
09:00 +13°C° 0 mm 6 m/s 750 mmHg 62%
10:00 +14°C° 0 mm 6 m/s 750 mmHg 57%
11:00 +16°C° 0 mm 6 m/s 750 mmHg 53%
12:00 +17°C° 0 mm 6 m/s 750 mmHg 51%
13:00 +17°C° 0 mm 6 m/s 749 mmHg 50%
14:00 +19°C° 0 mm 6 m/s 749 mmHg 48%
15:00 +19°C° 0 mm 6 m/s 749 mmHg 51%
16:00 +19°C° 0 mm 6 m/s 749 mmHg 54%
17:00 +17°C° 0 mm 6 m/s 748 mmHg 57%
18:00 +16°C° 0 mm 5 m/s 748 mmHg 63%
19:00 +14°C° 0 mm 5 m/s 748 mmHg 70%
20:00 +12°C° 0 mm 4 m/s 748 mmHg 77%
21:00 +11°C° 0 mm 4 m/s 748 mmHg 78%
22:00 +10°C° 0 mm 4 m/s 749 mmHg 80%
23:00 +9°C° 0 mm 3 m/s 749 mmHg 82%

11 Mai, Marţi

Timp Temperatura Precipitaţii Vânt Presiune Umiditate
00:00 +8°C° 0 mm 4 m/s 749 mmHg 81%
01:00 +8°C° 0 mm 4 m/s 748 mmHg 81%
02:00 +8°C° 0 mm 5 m/s 748 mmHg 80%
03:00 +8°C° 0 mm 5 m/s 748 mmHg 81%
04:00 +7°C° 0 mm 5 m/s 748 mmHg 81%
05:00 +7°C° 0 mm 5 m/s 748 mmHg 82%
06:00 +8°C° 0 mm 5 m/s 748 mmHg 78%
07:00 +10°C° 0 mm 6 m/s 748 mmHg 73%
08:00 +11°C° 0 mm 6 m/s 748 mmHg 69%
09:00 +14°C° 0 mm 7 m/s 748 mmHg 63%
10:00 +15°C° 0 mm 7 m/s 748 mmHg 57%
11:00 +16°C° 0 mm 7 m/s 748 mmHg 52%
12:00 +17°C° 0 mm 7 m/s 748 mmHg 49%
13:00 +18°C° 0 mm 7 m/s 747 mmHg 47%
14:00 +18°C° 0 mm 7 m/s 747 mmHg 45%
15:00 +19°C° 0 mm 6 m/s 747 mmHg 49%
16:00 +19°C° 0 mm 6 m/s 747 mmHg 52%
17:00 +19°C° 0 mm 5 m/s 746 mmHg 55%
18:00 +17°C° 0 mm 5 m/s 746 mmHg 63%
19:00 +15°C° 0 mm 5 m/s 746 mmHg 70%
20:00 +14°C° 0 mm 4 m/s 746 mmHg 78%
21:00 +13°C° 0 mm 4 m/s 746 mmHg 80%
22:00 +13°C° 0 mm 5 m/s 746 mmHg 82%
23:00 +13°C° 0 mm 5 m/s 746 mmHg 83%
Arată mai mult

Formular de consimțământ

Meteoprog și furnizorii noștri de servicii pot stoca și accesa date personale, precum cookies, identificatori de dispozitiv sau alte tehnologii similare pe dispozitivul dumneavoastră și procesa astfel de date pentru a personaliza conținutul și reclamele, dar și pentru a oferi caracteristici de social media și pentru a analiza traficul.

  • Stocarea și/sau accesarea informațiilor pe dispozitivul dumneavoastră

    Cookies, identificatori de dispozitiv sau alte informații pot fi stocate sau accesate pe dispozitiv în scopurile indicate mai sus.

  • Reclame și conținut personalizat, evaluarea reclamelor și a conținutului, informații despre audiențe și dezvoltarea produselor

    Reclamele și conținutul pot fi personalizate pe baza unui profil. Pot fi adăugate date suplimentare pentru a personaliza mai bine reclamele și conținutul. Performanța reclamelor și conținutului poate fi măsurată. Pot fi obținute informații despre utilizatorii care au văzut reclamele și conținutul. Aceste date pot fi utilizate pentru a dezvolta sau îmbunătăți experiența utilizatorilor, sistemele și software-ul.

Dând clic pe ‘Sunt de acord’, permiteți utilizarea cookie-urilor menționate, a identificatorilor de dispozitiv, balizelor web sau altor tehnologii similare. Setările pot fi modificate din browser-ul dispozitivului dumneavoastră.

În anumite scopuri, interesele legitime pot prima asupra consimțământului. Puteți citi mai multe informații în acest sens în Politica privind Confidențialitatea Datelor și Cookie.